User: anonymous
Location: Pulvis Stellarum Observatory
(41.6962°N, 71.4263°W)
Time: 18:31:42
(UTC-04:00)
Language:

Cosmos 1758 - Orbit

View from above orbital plane
View from above orbital plane
View from above satellite
View from above satellite

Ground track
Ground track

The orbit data is extracted from the following two-line orbital elements,

1 16791U 86046A   14208.90141357  .00001215  00000-0  92355-4 0   890
2 16791 082.4740 338.4764 0019057 076.9531 283.3820 15.01137196527137
Epoch (UTC): 27 July 2014 21:38:02
Eccentricity: 0.0019057
inclination: 82.4740°
perigee height: 550 km
apogee height: 576 km
right ascension of ascending node: 338.4764°
argument of perigee: 76.9531°
revolutions per day: 15.01137196
mean anomaly at epoch: 283.3820°
orbit number at epoch: 52713

The dashed part of the orbit path shows where the satellite is in the earth's shadow,  

DLR